Location: Gaast
(52.9002°N, 5.8891°E)
Time: 07:27:23
(UTC+00:00)

SAR-Lupe-4 - Pass Details

Date: 18 November 2025
Orbit: 476 x 483 km, 98.1° (Epoch: 03 October)

Event Time Altitude Azimuth Distance (km) Brightness Sun altitude
Rises 16:15:53 0° 143° (SE) 2,538 7.1 -5.9°
Reaches altitude 10° 16:18:01 10° 136° (SE) 1,662 6.1 -6.2°
Maximum altitude 16:21:20 37° 67° (ENE) 764 4.1 -6.7°
Drops below altitude 10° 16:24:40 10° 359° (N) 1,672 6.1 -7.2°
Sets 16:26:50 0° 351° (N) 2,556 7.1 -7.5°
